Weather History for Fort Myers, FL

Change the Weather History Date:

Sunday, December 2, 2012

  Actual Average Record
Temperature  
Mean Temperature 72 °F 69 °F  
Max Temperature 83 °F 79 °F 88 °F (1940)
Min Temperature 61 °F 59 °F 40 °F (1963)
Degree Days  
Heating Degree Days 0 1  
Month to date heating degree days 0 2  
Since 1 July heating degree days 15 20  
Cooling Degree Days 7 5  
Month to date cooling degree days 12 10  
Year to date cooling degree days 4225 3873  
Growing Degree Days 22 (Base 50)    
Moisture  
Dew Point 61 °F    
Average Humidity 72    
Maximum Humidity 93    
Minimum Humidity 40    
Precipitation  
Precipitation 0.00 in 0.05 in 0.72 in (1931)
Month to date precipitation 0.00 0.09  
Year to date precipitation 47.43 54.31  
Sea Level Pressure  
Sea Level Pressure 30.20 in    
Wind  
Wind Speed 7 mph (ENE)    
Max Wind Speed 17 mph    
Max Gust Speed 22 mph    
Visibility 10 miles    
Events      
T = Trace of Precipitation, MM = Missing Value Source: NWS Daily Summary

Daily Weather History Graph

Daily Weather History Graph

Search for Another Location

Airport:

Trip Planner

Search our weather history database for the weather conditions in past years. The results will help you decide how hot, cold, wet, or windy it might be!

Date:

Astronomy

Dec. 02, 2012 Rise Set
Actual Time 6:59 AM EST 5:34 PM EST
Civil Twilight 6:34 AM EST 5:59 PM EST
Nautical Twilight 6:05 AM EST 6:28 PM EST
Astronomical Twilight 5:37 AM EST 6:56 PM EST
Moon 9:11 PM EST (12/2) 9:56 AM EST (12/2)
Length of Visible Light 11h 24m
Length of Day
10h 34m
Waning Gibbous, 86% of the Moon is Illuminated
Dec 2
Waning Gibbous
Dec 6
Last Quarter
Dec 13
New
Dec 20
First Quarter
Dec 28
Full

Hourly Weather History & Observations

Time (EST) Temp. Heat Index Dew Point Humidity Pressure Visibility Wind Dir Wind Speed Gust Speed Precip Events Conditions
12:53 AM 64.9 °F - 61.0 °F 87% 30.20 in 10.0 mi ENE 5.8 mph - N/A   Mostly Cloudy
2:53 AM 63.0 °F - 61.0 °F 93% 30.19 in 10.0 mi NE 4.6 mph - N/A   Scattered Clouds
3:53 AM 63.0 °F - 61.0 °F 93% 30.19 in 10.0 mi NE 4.6 mph - N/A   Clear
4:53 AM 63.0 °F - 61.0 °F 93% 30.19 in 10.0 mi ENE 4.6 mph - N/A   Clear
5:53 AM 62.1 °F - 60.1 °F 93% 30.20 in 10.0 mi NE 5.8 mph - N/A   Clear
6:53 AM 62.1 °F - 60.1 °F 93% 30.22 in 10.0 mi NE 5.8 mph - N/A   Clear
7:53 AM 64.0 °F - 62.1 °F 93% 30.23 in 10.0 mi NE 8.1 mph - N/A   Clear
8:53 AM 71.1 °F - 63.0 °F 75% 30.24 in 10.0 mi ENE 6.9 mph - N/A   Clear
9:53 AM 75.0 °F - 63.0 °F 66% 30.25 in 10.0 mi ENE 8.1 mph - N/A   Clear
10:53 AM 79.0 °F - 62.1 °F 56% 30.24 in 10.0 mi East 11.5 mph 17.3 mph N/A   Partly Cloudy
11:53 AM 78.1 °F - 61.0 °F 56% 30.22 in 10.0 mi East 10.4 mph - N/A   Scattered Clouds
12:53 PM 81.0 °F 81.6 °F 60.1 °F 49% 30.19 in 10.0 mi ESE 12.7 mph - N/A   Scattered Clouds
1:53 PM 82.9 °F 82.4 °F 57.0 °F 41% 30.17 in 10.0 mi East 9.2 mph - N/A   Partly Cloudy
2:53 PM 82.9 °F 82.1 °F 55.9 °F 39% 30.15 in 10.0 mi ENE 17.3 mph 21.9 mph N/A   Partly Cloudy
3:53 PM 81.0 °F 81.0 °F 57.0 °F 44% 30.15 in 10.0 mi East 9.2 mph - N/A   Partly Cloudy
4:53 PM 79.0 °F - 57.0 °F 47% 30.15 in 10.0 mi ENE 8.1 mph - N/A   Clear
5:53 PM 75.0 °F - 60.1 °F 60% 30.17 in 10.0 mi East 8.1 mph - N/A   Clear
6:53 PM 72.0 °F - 62.1 °F 71% 30.19 in 10.0 mi East 6.9 mph - N/A   Clear
7:53 PM 70.0 °F - 62.1 °F 76% 30.21 in 10.0 mi ENE 6.9 mph - N/A   Clear
8:53 PM 68.0 °F - 62.1 °F 81% 30.22 in 10.0 mi East 4.6 mph - N/A   Overcast
9:53 PM 68.0 °F - 62.1 °F 81% 30.22 in 10.0 mi NE 4.6 mph - N/A   Partly Cloudy
10:53 PM 66.9 °F - 62.1 °F 84% 30.21 in 10.0 mi ENE 5.8 mph - N/A   Mostly Cloudy
11:53 PM 64.9 °F - 61.0 °F 87% 30.21 in 10.0 mi Calm Calm - N/A   Partly Cloudy